Regional Weather Roundup
Issued by NWS Little Rock, AR

Home | Current Version | Previous Version | Text Only | Print | Product List | Glossary Off
Versions: 1 2 3 4 5 6 7 8 9 10 11 12 13 14 15 16 17 18 19 20 21 22 23 24 25 26 27 28 29 30 31 32 33 34 35 36 37 38 39 40 41 42 43 44 45 46 47 48 49 50

000
ASUS44 KLZK 160005
RWRLZK

WEATHER ROUNDUP FOR ARKANSAS
NATIONAL WEATHER SERVICE LITTLE ROCK AR
600 PM CST MON JAN 15 2018

NOTE: "FAIR" INDICATES FEW OR NO CLOUDS BELOW 12,000 FEET WITH NO
SIGNIFICANT WEATHER AND/OR OBSTRUCTIONS TO VISIBILITY.

ARZ001-003-010-029-160100-
NORTHWEST ARKANSAS

CITY           SKY/WX    TMP DP  RH WIND       PRES   REMARKS
FAYETTEVILLE   CLOUDY    17  10  74 NW14      30.52R WCI   3
6HR MIN TEMP:  17; 6HR MAX TEMP:  30;

FORT SMITH     CLOUDY    26  15  63 NW13      30.54R WCI  15
6HR MIN TEMP:  26; 6HR MAX TEMP:  46;

HARRISON       CLOUDY    18  11  74 NW9       30.48R WCI   7
6HR MIN TEMP:  18; 6HR MAX TEMP:  26; 6HR PCP: TRACE;

BENTONVILLE    CLOUDY    15   6  67 NW9       30.55R WCI   3
6HR MIN TEMP:  15; 6HR MAX TEMP:  25; 6HR PCP: TRACE;

ROGERS         CLOUDY    14   6  70 N9        30.53R WCI   2
6HR MIN TEMP:  14; 6HR MAX TEMP:  23; 6HR PCP: TRACE;

SILOAM SPGS    CLOUDY    15   5  64 N14       30.56R WCI   0
6HR MIN TEMP:  15; 6HR MAX TEMP:  26;

HIGHFILL       CLOUDY    15   6  67 N13       30.54R WCI   1
6HR MIN TEMP:  15; 6HR MAX TEMP:  25; 6HR PCP: TRACE;

$$

ARZ004-005-016-160100-
NORTH CENTRAL ARKANSAS

CITY           SKY/WX    TMP DP  RH WIND       PRES   REMARKS
BATESVILLE     FLURRIES  29  22  75 NW9G16    30.46R WCI  20
6HR MIN TEMP:  29; 6HR MAX TEMP:  39; 6HR PCP: TRACE;

FLIPPIN        FLURRIES  20  13  74 NW14      30.51R WCI   7
6HR MIN TEMP:  20; 6HR MAX TEMP:  32; 6HR PCP: TRACE;

MTN HOME       FLURRIES  19  12  74 N10G17    30.48R WCI   7
6HR MIN TEMP:  19; 6HR MAX TEMP:  28; 6HR PCP:  0.01;

$$

ARZ040-041-160100-
WEST CENTRAL ARKANSAS

CITY           SKY/WX    TMP DP  RH WIND       PRES   REMARKS
MENA           CLOUDY    36  27  69 NW10G17   30.41R
MOUNT IDA      CLOUDY    39  27  62 NW7       30.38R
6HR MIN TEMP:  39; 6HR MAX TEMP:  54;

$$

ARZ009-017-025-026-028-160100-
NORTHEAST ARKANSAS

CITY           SKY/WX    TMP DP  RH WIND       PRES   REMARKS
JONESBORO      CLOUDY    30  26  85 NW12G17   30.45R WCI  20
6HR MIN TEMP:  30; 6HR MAX TEMP:  37;

NEWPORT        FLURRIES  30  25  81 N16       30.45R WCI  19
6HR MIN TEMP:  30; 6HR MAX TEMP:  40; 6HR PCP: TRACE;

WALNUT RIDGE   FLURRIES  27  24  89 NW10      30.46R WCI  17
6HR MIN TEMP:  27; 6HR MAX TEMP:  33; 6HR PCP: TRACE;

BLYTHEVILLE    CLOUDY    32  32 100 N13       30.43S WCI  22
6HR MIN TEMP:  32; 6HR MAX TEMP:  35; 6HR PCP:  0.03;

$$

ARZ022-023-033-042-044-160100-
CENTRAL ARKANSAS

CITY           SKY/WX    TMP DP  RH WIND       PRES   REMARKS
LITTLE ROCK    CLOUDY    41  29  62 N12       30.41R
6HR MIN TEMP:  41; 6HR MAX TEMP:  48;

N LITTLE ROCK    N/A     38  30  73 N10       30.45R
6HR MIN TEMP:  38; 6HR MAX TEMP:  48;

JACKSONVILLE   CLOUDY    39  29  67 N12       30.41R
6HR MIN TEMP:  39; 6HR MAX TEMP:  48;

SEARCY         LGT RAIN  36  29  75 N10       30.45R
6HR MIN TEMP:  36; 6HR MAX TEMP:  46;

HOT SPRINGS    CLOUDY    45  26  47 VRB3      30.38R
6HR MIN TEMP:  41; 6HR MAX TEMP:  51;

RUSSELLVILLE   CLOUDY    35  25  66 NW12      30.43R WCI  27
6HR MIN TEMP:  35; 6HR MAX TEMP:  47;

CLINTON        MIX PCPN  28  19  69 NW13      30.47R WCI  18
$$

ARZ036-160100-
EAST ARKANSAS

CITY           SKY/WX    TMP DP  RH WIND       PRES   REMARKS
WEST MEMPHIS   MIX PCPN  35  31  85 N8        30.42R WCI  29
6HR MIN TEMP:  35; 6HR MAX TEMP:  40; 6HR PCP: TRACE;

$$

ARZ050-053-066-070-073-160100-
SOUTHWEST ARKANSAS

CITY           SKY/WX    TMP DP  RH WIND       PRES   REMARKS
ARKADELPHIA    CLOUDY    42  34  73 N5        30.38R
6HR MIN TEMP:  36; 6HR MAX TEMP:  45;

CAMDEN         LGT RAIN  43  32  65 N3        30.35S
TEXARKANA      LGT RAIN  42  39  89 N9        30.35R
6HR MIN TEMP:  42; 6HR MAX TEMP:  52; 6HR PCP: TRACE;

EL DORADO      CLOUDY    45  34  65 N6        30.34R
6HR MIN TEMP:  45; 6HR MAX TEMP:  58;

DE QUEEN       LGT RAIN  40  30  67 N12G20    30.37R
6HR MIN TEMP:  38; 6HR MAX TEMP:  46; 6HR PCP: TRACE;

$$

ARZ056-057-069-160100-
SOUTHEAST ARKANSAS

CITY           SKY/WX    TMP DP  RH WIND       PRES   REMARKS
PINE BLUFF     CLOUDY    41  30  65 N9        30.38S
6HR MIN TEMP:  41; 6HR MAX TEMP:  49;

STUTTGART      CLOUDY    39  32  76 NE13      30.41R
6HR MIN TEMP:  39; 6HR MAX TEMP:  42;

MONTICELLO     CLOUDY    45  34  65 VRB5      30.35R
6HR MIN TEMP:  45; 6HR MAX TEMP:  57;


$$





USA.gov is the U.S. government's official web portal to all federal, state and local government web resources and services.